Ravenna, OH

9:44 AM EST on November 19, 2017 (GMT -0500)
Ravenna

Weather History for KPOV - August, 2013

Change the Weather History Date:

Tuesday, August 27, 2013

  Actual Average (KCAK) Record (KCAK)
Temperature  
Mean Temperature 73 °F -  
Max Temperature 77 °F 81 °F 97 °F (1948)
Min Temperature 69 °F 61 °F 44 °F (1914)
Cooling Degree Days 8    
Growing Degree Days 23 (Base 50)    
Moisture  
Dew Point 71 °F    
Average Humidity 92    
Maximum Humidity 100    
Minimum Humidity 77    
Precipitation  
Precipitation 0.52 in - - ()
Sea Level Pressure  
Sea Level Pressure 30.00 in    
Wind  
Wind Speed 5 mph (WSW)    
Max Wind Speed 12 mph    
Max Gust Speed 21 mph    
Visibility 9 miles    
Events Rain    
Averages and records for this station are not official NWS values.
T = Trace of Precipitation, MM = Missing Value Source: NWS Daily Summary

Daily Weather History Graph

Daily Weather History Graph

Search for Another Location

Airport or City:

Trip Planner

Search our weather history database for the weather conditions in past years. The results will help you decide how hot, cold, wet, or windy it might be!

Date:

Astronomy

Aug. 27, 2013 Rise Set
Actual Time 6:46 AM EDT 8:05 PM EDT
Civil Twilight 6:18 AM EDT 8:33 PM EDT
Nautical Twilight 5:43 AM EDT 9:08 PM EDT
Astronomical Twilight 5:07 AM EDT 9:44 PM EDT
Moon 11:53 PM EDT (8/27) 1:47 PM EDT (8/27)
Length of Visible Light 14h 15m
Length of Day
13h 18m
Waning Gibbous, 57% of the Moon is Illuminated
Aug 27
Waning Gibbous
Aug 28
Last Quarter
Sep 5
New
Sep 12
First Quarter
Sep 19
Full

Hourly Weather History & Observations

Time (EDT) Temp. Dew Point Humidity Pressure Visibility Wind Dir Wind Speed Gust Speed Precip Events Conditions
12:14 AM 71.2 °F 71.4 °F 100% 30.04 in 10.0 mi Calm Calm - N/A   Overcast
12:33 AM 71.6 °F 71.8 °F 100% 30.04 in 10.0 mi WSW 4.6 mph - N/A   Overcast
12:54 AM 71.6 °F 71.4 °F 99% 30.04 in 10.0 mi West 4.6 mph - N/A   Overcast
1:14 AM 72.1 °F 70.9 °F 96% 30.03 in 10.0 mi West 4.6 mph - N/A   Overcast
1:33 AM 72.7 °F 69.3 °F 89% 30.03 in 10.0 mi West 6.9 mph - N/A   Mostly Cloudy
1:53 AM 72.9 °F 68.5 °F 86% 30.03 in 10.0 mi West 8.1 mph - N/A   Scattered Clouds
2:14 AM 73.0 °F 67.6 °F 83% 30.02 in 10.0 mi West 8.1 mph - N/A   Clear
2:34 AM 72.9 °F 67.5 °F 83% 30.02 in 10.0 mi West 6.9 mph - N/A   Clear
2:53 AM 73.2 °F 67.6 °F 83% 30.02 in 10.0 mi West 8.1 mph - N/A   Scattered Clouds
3:14 AM 73.4 °F 68.0 °F 83% 30.01 in 10.0 mi West 8.1 mph - N/A   Mostly Cloudy
3:34 AM 73.4 °F 68.2 °F 84% 30.01 in 10.0 mi West 6.9 mph - N/A   Mostly Cloudy
3:53 AM 73.0 °F 68.2 °F 85% 30.01 in 10.0 mi West 5.8 mph - N/A   Mostly Cloudy
4:14 AM 73.0 °F 68.2 °F 85% 30.01 in 10.0 mi West 6.9 mph - N/A   Scattered Clouds
4:33 AM 72.7 °F 68.5 °F 87% 30.01 in 10.0 mi West 6.9 mph - N/A   Scattered Clouds
4:54 AM 72.5 °F 68.9 °F 88% 30.01 in 10.0 mi West 8.1 mph - N/A   Clear
5:14 AM 72.1 °F 69.1 °F 90% 30.01 in 10.0 mi West 5.8 mph - N/A   Clear
5:34 AM 72.7 °F 68.9 °F 88% 30.01 in 10.0 mi West 5.8 mph - N/A   Scattered Clouds
5:53 AM 72.5 °F 68.7 °F 88% 30.00 in 10.0 mi West 3.5 mph - N/A   Mostly Cloudy
6:14 AM 72.1 °F 68.9 °F 89% 30.01 in 10.0 mi Calm Calm - N/A   Mostly Cloudy
6:34 AM 70.3 °F 70.5 °F 100% 30.01 in 7.0 mi WSW 3.5 mph - N/A   Overcast
6:53 AM 70.7 °F 70.9 °F 100% 30.01 in 10.0 mi Calm Calm - N/A   Mostly Cloudy
7:14 AM 71.2 °F 71.1 °F 99% 30.02 in 10.0 mi SW 3.5 mph - N/A   Overcast
7:34 AM 71.8 °F 70.9 °F 97% 30.01 in 10.0 mi WSW 4.6 mph - N/A   Overcast
7:53 AM 72.5 °F 70.0 °F 92% 30.02 in 10.0 mi WSW 5.8 mph - N/A   Overcast
8:14 AM 72.3 °F 70.5 °F 94% 30.03 in 10.0 mi West 4.6 mph - N/A   Overcast
8:33 AM 73.4 °F 69.3 °F 87% 30.02 in 10.0 mi West 3.5 mph - N/A   Overcast
8:54 AM 72.5 °F 71.6 °F 97% 30.01 in 7.0 mi West 4.6 mph - N/A   Overcast
9:14 AM 73.4 °F 71.1 °F 92% 30.01 in 10.0 mi WSW 6.9 mph - N/A   Scattered Clouds
9:34 AM 73.8 °F 69.6 °F 87% 30.01 in 10.0 mi West 9.2 mph - N/A   Scattered Clouds
9:53 AM 73.4 °F 68.5 °F 85% 30.01 in 10.0 mi West 5.8 mph - N/A   Scattered Clouds
10:14 AM 72.5 °F 68.0 °F 86% 30.04 in 10.0 mi West 9.2 mph - N/A   Scattered Clouds
10:34 AM 71.1 °F 70.9 °F 99% 30.06 in 5.0 mi WNW 11.5 mph 20.7 mph 0.07 in Rain Heavy Rain
10:53 AM 69.1 °F 69.3 °F 100% 30.07 in 1.8 mi WNW 5.8 mph 20.7 mph 0.21 in Rain Heavy Rain
11:14 AM 70.2 °F 70.3 °F 100% 30.08 in 3.0 mi WNW 5.8 mph - 0.08 in Rain Heavy Rain
11:34 AM 70.7 °F 70.9 °F 100% 30.07 in 5.0 mi WNW 11.5 mph - 0.23 in Rain Rain
11:53 AM 70.9 °F 71.1 °F 100% 30.06 in 5.0 mi West 9.2 mph - 0.29 in Rain Rain
12:14 PM 71.4 °F 71.6 °F 100% 30.03 in 10.0 mi WSW 3.5 mph - 0.01 in Rain Rain
12:33 PM 71.4 °F 71.6 °F 100% 30.00 in 10.0 mi SSW 4.6 mph - 0.02 in Rain Light Rain
12:54 PM 72.0 °F 72.1 °F 100% 29.98 in 10.0 mi SW 4.6 mph - 0.02 in Rain Light Rain
1:14 PM 72.9 °F 73.0 °F 100% 29.99 in 10.0 mi West 6.9 mph - N/A   Mostly Cloudy
1:34 PM 73.4 °F 73.4 °F 100% 29.98 in 10.0 mi WSW 4.6 mph - N/A   Mostly Cloudy
1:53 PM 74.3 °F 74.1 °F 99% 29.98 in 10.0 mi West 8.1 mph - N/A   Scattered Clouds
2:14 PM 75.2 °F 72.7 °F 92% 29.98 in 10.0 mi West 6.9 mph - N/A   Scattered Clouds
2:34 PM 75.6 °F 72.5 °F 90% 29.98 in 10.0 mi WSW 8.1 mph - N/A   Overcast
2:53 PM 76.3 °F 72.9 °F 89% 29.97 in 10.0 mi West 8.1 mph - N/A   Mostly Cloudy
3:14 PM 77.0 °F 71.2 °F 82% 29.97 in 10.0 mi WSW 8.1 mph - N/A   Clear
3:34 PM 76.3 °F 71.2 °F 84% 29.97 in 10.0 mi West 6.9 mph - N/A   Clear
3:53 PM 76.1 °F 71.6 °F 86% 29.97 in 10.0 mi WSW 8.1 mph - N/A   Clear
4:14 PM 76.1 °F 70.9 °F 84% 29.97 in 10.0 mi WSW 6.9 mph - N/A   Clear
4:33 PM 76.1 °F 70.9 °F 84% 29.97 in 10.0 mi WSW 6.9 mph - N/A   Clear
4:54 PM 76.3 °F 70.5 °F 82% 29.97 in 10.0 mi WSW 5.8 mph - N/A   Clear
5:14 PM 76.1 °F 70.2 °F 82% 29.96 in 10.0 mi WSW 4.6 mph - N/A   Clear
5:33 PM 77.5 °F 70.0 °F 77% 29.97 in 10.0 mi WSW 6.9 mph - N/A   Clear
5:53 PM 77.4 °F 69.6 °F 77% 29.97 in 10.0 mi WSW 5.8 mph - N/A   Clear
6:14 PM 77.0 °F 70.9 °F 81% 29.97 in 10.0 mi Calm Calm - N/A   Clear
6:34 PM 77.0 °F 71.1 °F 82% 29.96 in 10.0 mi WSW 3.5 mph - N/A   Clear
6:53 PM 76.6 °F 70.9 °F 82% 29.96 in 10.0 mi WSW 3.5 mph - N/A   Clear
7:14 PM 75.4 °F 72.1 °F 90% 29.96 in 10.0 mi Calm Calm - N/A   Clear
7:33 PM 74.7 °F 74.5 °F 99% 29.97 in 10.0 mi Calm Calm - N/A   Scattered Clouds
7:54 PM 73.2 °F 73.4 °F 100% 29.96 in 10.0 mi Calm Calm - N/A   Mostly Cloudy
8:14 PM 74.3 °F 74.1 °F 99% 29.95 in 10.0 mi Calm Calm - N/A   Mostly Cloudy
8:33 PM 74.7 °F 73.8 °F 97% 29.95 in 10.0 mi Calm Calm - N/A   Scattered Clouds
8:53 PM 73.6 °F 73.4 °F 99% 29.97 in 10.0 mi Calm Calm - N/A   Mostly Cloudy
9:14 PM 72.5 °F 72.7 °F 100% 29.97 in 7.0 mi Calm Calm - N/A   Overcast
9:34 PM 72.7 °F 72.9 °F 100% 29.96 in 10.0 mi Calm Calm - N/A   Mostly Cloudy
9:53 PM 72.7 °F 72.9 °F 100% 29.95 in 10.0 mi Calm Calm - N/A   Mostly Cloudy
10:14 PM 73.4 °F 73.4 °F 100% 29.95 in 10.0 mi Calm Calm - N/A   Scattered Clouds
10:34 PM 73.0 °F 73.4 °F 100% 29.96 in 10.0 mi Calm Calm - N/A   Mostly Cloudy
10:53 PM 73.0 °F 73.4 °F 100% 29.95 in 10.0 mi Calm Calm - N/A   Mostly Cloudy
11:14 PM 73.4 °F 73.4 °F 100% 29.95 in 10.0 mi Calm Calm - N/A   Scattered Clouds
11:33 PM 73.4 °F 73.4 °F 100% 29.94 in 10.0 mi Calm Calm - N/A   Mostly Cloudy
11:53 PM 73.0 °F 73.2 °F 100% 29.94 in 7.0 mi Calm Calm - N/A   Scattered Clouds